Regional Weather Roundup
Issued by NWS

Home | Current Version | Previous Version | Text Only | Print | Product List | Glossary On
Versions: 1 2 3 4 5 6 7 8 9 10 11 12 13 14 15 16 17 18 19 20 21 22 23 24 25 26 27 28 29 30 31 32 33 34 35 36 37 38 39 40 41 42 43 44 45 46 47 48 49 50
000
ASUS43 KMKX 270300
RWRWI

WISCONSIN REGIONAL WEATHER ROUNDUP
NATIONAL WEATHER SERVICE MILWAUKEE/SULLIVAN WI
1000 PM CDT SUN APR 26 2015

NOTE: "FAIR" INDICATES FEW OR NO CLOUDS BELOW 12,000 FEET WITH NO
SIGNIFICANT WEATHER AND/OR OBSTRUCTIONS TO VISIBILITY.

WIZ001-002-006>008-014>016-023>028-270400-
NORTHWEST WISCONSIN

CITY           SKY/WX    TMP DP  RH WIND       PRES   REMARKS
SUPERIOR ARPT  CLEAR     33  30  88 CALM      30.18S
ASHLAND        CLEAR     36  33  89 N3        30.18R
HAYWARD        CLEAR     38  25  59 NE3       30.15R
SIREN          CLEAR     49  24  37 CALM      30.15R
CUMBERLAND     CLEAR     45  23  42 NE6       30.13S
RICE LAKE      CLEAR     44  26  47 NE3       30.15R
CHETEK         CLEAR     49  27  42 N5        30.13R
LADYSMITH      CLEAR     44  25  45 N5        30.14R
EAU CLAIRE     NOT AVBL
MENOMONIE      CLEAR     52  21  30 N7        30.12R
NEW RICHMOND   CLEAR     49  23  35 NE7       30.14R
OSCEOLA        CLEAR     50  25  38 NE6       30.16R
$$

WIZ003>005-009-010-017-018-270400-
NORTH CENTRAL WISCONSIN

CITY           SKY/WX    TMP DP  RH WIND       PRES   REMARKS
MANITOWISH WTR CLEAR     41  25  51 N3        30.13S
ARBOR VITAE    CLEAR     42  27  55 N6        30.13R
WOODRUFF       CLEAR     42  27  55 N6        30.13R
RHINELANDER    CLEAR     43  29  57 N6        30.12R
EAGLE RIVER    CLEAR     40  27  59 N5        30.12R
LAND O LAKES   CLEAR     40  29  63 N5        30.13S
PHILLIPS       CLEAR     40  27  59 N3        30.12R
TOMAHAWK       CLEAR     44  28  52 N5        30.12R
MEDFORD        CLEAR     43  28  55 N6        30.10R
MERRILL        CLEAR     46  28  49 N8        30.10R
$$

WIZ029-030-035-036-043>047-270400-
CENTRAL WISCONSIN

CITY           SKY/WX    TMP DP  RH WIND       PRES   REMARKS
WAUSAU         CLEAR     49  27  42 N8        30.08R
MOSINEE        NOT AVBL
MARSHFIELD     CLEAR     50  27  40 N12       30.08R
STEVENS POINT  CLEAR     48  25  41 N6        30.07R
WAUPACA        CLEAR     50  29  44 E9        30.08R
WAUTOMA        NOT AVBL
WISC RAPIDS    CLEAR     49  23  36 NE9       30.08R
CAMP DOUGLAS   NOT AVBL
$$

WIZ011>013-019>022-031-037>040-048>050-270400-
NORTHEAST WISCONSIN

CITY           SKY/WX    TMP DP  RH WIND       PRES   REMARKS
ANTIGO         CLEAR     45  28  52 N12       30.09R
SHAWANO        CLEAR     44  32  63 E5        30.09R
OCONTO         CLEAR     40  32  75 CALM      30.08R
STURGEON BAY   MOCLDY    45  27  49 N13       30.09S
GREEN BAY      CLEAR     46  32  58 NE10      30.08R
MANITOWOC      NOT AVBL
APPLETON       CLEAR     46  28  49 VRB5      30.08R
CLINTONVILLE   CLEAR     43  32  65 E5        30.08R
OSHKOSH        CLEAR     46  31  55 E9        30.07R
$$

WIZ032>034-041-042-053>061-270400-
SOUTHWEST WISCONSIN

CITY           SKY/WX    TMP DP  RH WIND       PRES   REMARKS
LA CROSSE      CLEAR     51  30  44 N6        30.07R
SPARTA         CLEAR     40  27  59 N5        30.07R
VIROQUA        CLEAR     48  25  40 CALM      30.06R
BOSCOBEL       CLEAR     46  28  49 CALM      30.06R
PRAIRIE DU CHI CLEAR     47  31  53 CALM      30.06R
PLATTEVILLE    CLEAR     46  31  55 N6        30.04R
$$

WIZ056-057-062-063-064-067-068-270400-
SOUTH CENTRAL WISCONSIN

CITY           SKY/WX    TMP DP  RH WIND       PRES   REMARKS
REEDSBURG      CLEAR     49  27  42 NW5       30.03R
BARABOO/DELLS  CLEAR     50  21  32 NW3       30.02S
LONE ROCK      NOT AVBL
MINERAL POINT  CLEAR     50  23  34 CALM      30.04R
MADISON        PTCLDY    48  30  49 E13       30.03R
MIDDLETON      CLEAR     46  31  58 NW3       30.02S
WATERTOWN      CLEAR     43  28  55 E7        30.05R
MONROE         CLEAR     52  27  37 NW3       30.02R
JANESVILLE     CLEAR     41  28  60 E8        30.03R
$$

WIZ051-052-058>065-066-070>072-270400-
SOUTHEAST WISCONSIN

CITY           SKY/WX    TMP DP  RH WIND       PRES   REMARKS
MILWAUKEE      CLEAR     43  29  57 N12       30.06S
WAUKESHA       CLEAR     41  27  56 NE3       30.06S
MILWAUKEE/TIMM CLEAR     43  28  56 N7        30.06S
RACINE         CLEAR     42  29  59 N12       30.06R
BURLINGTON     CLEAR     40  25  54 N3        30.05R
KENOSHA        CLEAR     42  29  59 N8        30.05R
FOND DU LAC    CLEAR     43  28  55 E5        30.07R
SHEBOYGAN      CLEAR     40  31  70 NE10      30.07R WCI  33
WEST BEND      CLEAR     41  28  60 NE5       30.06R
JUNEAU         CLEAR     42  29  58 E7        30.07R
$$

LSZ147-162-270400-
LAKE SUPERIOR

STATION/POSITION TIME  TEMP    WIND        PRES    WAVE
                       AIR SEA DIR/SP/G            HT/PER
                 (UTC) (F)     (DEG/KT/KT) (MB)    (FT/S)
W MID LAKE BUOY  0150   35 35  320/  4/  6 1023.1S   1
DEVILS ISLAND    0200   36      20/  5/  5 1022.8R
PORT WING        0240   35     160/  2/  3 1022.0R
SAXON HARBOR     0200   35        CALM     1021.3R
$$

LMZ867-665-643>646-270400-
LAKE MICHIGAN

STATION/POSITION TIME  TEMP    WIND        PRES    WAVE
                       AIR SEA DIR/SP/G            HT/PER
                 (UTC) (F)     (DEG/KT/KT) (MB)    (FT/S)
CHAMBERS ISLAND  0200   42     350/ 11/ 12 1019.0R
NORTHPORT PIER   0200   41     330/  9/ 12 1018.6R
SISTER BAY       0147   45      10/ 13/ 18   N/A
KEWAUNEE LAKESHO 0200   43      30/  8/ 14 1017.4R
SHEBOYGAN LAKESH 0200   42      10/ 13/ 14 1018.8R
PORT WASHINGTON  0240   44     340/  4/  6 1018.6R
MILWAUKEE LAKESH 0200   44      20/ 14/ 16   N/A
KENOSHA   LAKESH 0200   44      10/ 19/ 22 1016.9R
$$

TC  - TEMPERATURE IN CELSIUS
VSB - VISIBILITY IN STATUTE MILES
WCI - WIND CHILL INDEX
HX  - HEAT INDEX




USA.gov is the U.S. government's official web portal to all federal, state and local government web resources and services.